Regional Weather Roundup
Issued by NWS

Home | Current Version | Previous Version | Graphics & Text | Print | Product List | Glossary On
Versions: 1 2 3 4 5 6 7 8 9 10 11 12 13 14 15 16 17 18 19 20 21 22 23 24 25 26 27 28 29 30 31 32 33 34 35 36 37 38 39 40 41 42 43 44 45 46 47 48 49 50
000
ASUS45 KBOU 032110
RWRCO

WEATHER ROUNDUP FOR COLORADO
NATIONAL WEATHER SERVICE DENVER/BOULDER CO
300 PM MDT FRI JUL 03 2015

NOTE: "FAIR" INDICATES FEW OR NO CLOUDS BELOW 12000 FEET WITH NO
SIGNIFICANT WEATHER AND/OR OBSTRUCTIONS TO VISIBILITY.

COZ001>005-013-030-031-032200-
...NORTHWEST COLORADO...

CITY           SKY/WX    TMP DP  RH WIND       PRES   REMARKS
CRAIG          SUNNY     89  41  18 VRB5      30.12F
HAYDEN         SUNNY     88  37  16 W9        30.15F
MEEKER         MOSUNNY   87  42  20 E3        30.13F
MOUNT WERNER   NOT AVBL
STEAMBOAT SPGS SUNNY     85  42  22 CALM      30.18F
WALDEN         MOSUNNY   79  32  18 NW9G17    30.29S
$$

COZ006>008-011-032200-
...WEST CENTRAL VALLEYS...

CITY           SKY/WX    TMP DP  RH WIND       PRES   REMARKS
GRAND JUNCTION MOSUNNY   95  49  20 W12G18    29.98F
MONTROSE       MOSUNNY   85  50  29 W7        30.09S
EAGLE          PTSUNNY   79  50  36 SE17G23   30.17S
RIFLE          TSTM      82  53  36 NW16G22   30.06S
DELTA          MOSUNNY   98  46  17 S7        30.01F
NUCLA          MOSUNNY   90  45  20 W6        30.13F
$$

COZ017>023-064>068-032200-
...SOUTHWEST COLORADO...

CITY           SKY/WX    TMP DP  RH WIND       PRES   REMARKS
DURANGO          N/A     83  50  31 MISG      30.19F
CORTEZ         SUNNY     89  49  25 SW9       30.12F
PAGOSA SPRINGS PTSUNNY   71  43  36 N10G18    30.29S THUNDER
TELLURIDE      NOT AVBL
WOLF CREEK PAS NOT AVBL
$$

COZ009-010-012-014-032>034-037-058>063-032200-
...CENTRAL COLORADO...

CITY           SKY/WX    TMP DP  RH WIND       PRES   REMARKS
ASPEN          PTSUNNY   82  38  20 VRB5G16   30.24F
BUENA VISTA    PTSUNNY   73  44  35 S6        30.26F
COPPER MTN     LGT RAIN  59  25  27 W22G37    30.62R
BERTHOUD PASS  LGT RAIN  52  41  66 N5G17     30.67S
COTTONWOOD PAS NOT AVBL
GUNNISON       PTSUNNY   66  54  63 NW12      30.30S
KREMMLING      MOSUNNY   88  25  10 N8G17     30.22S
LEADVILLE      CLOUDY    68  36  30 NW18G25   30.42S
MONARCH PASS   PTSUNNY   57  43  58 SW20G25   30.71F
SALIDA         PTSUNNY   77  43  30 S8        30.31F
SUNLIGHT       PTSUNNY   70  37  30 NW6       30.54F
WILKERSON PASS MOSUNNY   61  41  48 E7        30.58S
$$

COZ069>075-032200-
...SAN LUIS VALLEY/SANGRE DE CRISTO MOUNTAINS...

CITY           SKY/WX    TMP DP  RH WIND       PRES   REMARKS
ALAMOSA        SUNNY     76  49  38 SW7       30.26F
LA VETA PASS   MOSUNNY   70  43  37 MISG      30.47F THUNDER
SAGUACHE       MOSUNNY   73  46  38 S3        30.29F
$$

COZ035-036-038>040-032200-
...NORTHERN COLORADO FRONT RANGE...

CITY           SKY/WX    TMP DP  RH WIND       PRES   REMARKS
DENVER INTL AP MOSUNNY   82  56  40 VRB3      30.12F
DMNS CITY PARK   N/A     82  54  38 SW3       30.11F
AURORA         MOSUNNY   81  56  42 N2        30.14F
FRONT RANGE AP PTSUNNY   82  59  44 S6        30.14F
ERIE MUNI ARPT SUNNY     83  54  36 N5        30.11F
BOULDER MUN AP SUNNY     81  55  41 CALM      30.13F
CENTENNIAL     MOSUNNY   79  57  46 VRB5      30.15F
BROOMFIELD     MOSUNNY   81  54  39 N5        30.16F
FORT COLLINS   SUNNY     82  61  47 SE9       30.09F
LONGMONT       SUNNY     87  56  34 NW5       30.13F
$$

COZ041-046-047-076>085-087-088-032200-
...PIKES PEAK/PALMER DIVIDE AND SOUTHERN FOOTHILLS...

CITY           SKY/WX    TMP DP  RH WIND       PRES   REMARKS
COLO. SPRINGS  MOSUNNY   77  54  44 VRB7      30.20F
A. F. ACADEMY  MOSUNNY   77  56  47 S10       30.20F
ELLICOTT       MOSUNNY  N/A N/A N/A VRB5      30.18F
FALCON         MOSUNNY   77  51  40 S5        30.25F
FORT CARSON    MOSUNNY   77  57  50 SE2       30.17S
LIMON          SUNNY     80  57  45 S9        30.14F
MONUMENT HILL  NOT AVBL
TRINIDAD       PTSUNNY   88  54  31 SE7       30.12F
$$

COZ042>045-048>051-090-091-032200-
...NORTHEAST COLORADO...

CITY           SKY/WX    TMP DP  RH WIND       PRES   REMARKS
GREELEY ARPT   SUNNY     82  61  47 E6        30.10F
AKRON          MOSUNNY   81  58  45 VRB7      30.11F
BURLINGTON     SUNNY     83  52  34 VRB3      30.09F
WRAY           MOSUNNY   90  52  27 SE10      30.05F
STERLING       SUNNY     84  59  42 SW8         N/A
HOLYOKE        SUNNY     88  52  29 E6        30.05F
FORT MORGAN    SUNNY     83  52  34 E3        30.10F
$$

COZ086-089-092>099-032200-
...SOUTHEAST COLORADO...

CITY           SKY/WX    TMP DP  RH WIND       PRES   REMARKS
PUEBLO         MOSUNNY   89  55  31 VRB3      30.06F
LA JUNTA       SUNNY     89  59  36 E12       30.04F
LAMAR          SUNNY     89  60  37 NE9       30.01F
SPRINGFIELD      N/A     79  57  46 SE18G26   30.06F
$$


USA.gov is the U.S. government's official web portal to all federal, state and local government web resources and services.